Volver al catálogo

THORAD AGENA D DEB

ActivoSSO
NORAD 42553·DEBRIS·🇺🇸 United States

Lanzado Apr 8, 1970 desde Vandenberg Space Force Base

Loading…

Próximos Pases (próximas 24 horas)

TLE

ActualizadoSource: Space-Track

Época: Sep 12, 2026, 04:49 UTC

1 42553U 70025TK  26255.20097977 -.00000033  00000-0  21165-4 0  9990
2 42553 100.0720 263.0261 0128403 109.6094 251.8929 13.11057847566963

Sigue THORAD AGENA D DEB en tiempo real con AllMySat

Download on the App Store